Hovedside
METAR-TAF:

METAR-TAF

Lufthavner :

Vardø lufthavn. Svartnes

Vardø, Norge

breddegrad: 70-21N, lengdegrad: 031-03E, høyde over havet: 12 m

Gjeldene værobservasjon

Denne rapporten ble laget for 40 minutter siden, klokken 19:50 UTC
Vind 7 kt fra Sørvest
Temperatur -1°C
Luftfuktighet 86%
Trykk 1032 hPa
Sikt 10 km eller mer
Få skyer i en høyde av 1000 ft
Brutte skyer i en høyde av 3500 ft

METAR: ENSS 181950Z 22007KT 9999 FEW010 BKN035 M01/M03 Q1032 RMK WIND 500FT 22006KT

Tid: 21:30 (20:30 UTC)


TAF: fraværende

Værobservasjoner og værvarsel for over 4000 flyplasser (METAR- og TAF-rapporter).

Tilgjengelige stasjoner er representert av de røde og gule prikkene på kartet.

Hold musepekeren over prikken for å se navnet på stasjonen.

Klikk så for å se værobservasjoner og -varsler.

For å forandre kartet kan du klikke på den grønne knappen med svart kryss for å zoome inn, på den grønne knappen med strek for å zoome ut, eller på de grønne pilene for å se tilstøtende kart.


METAR-TAF: